Terug naar catalogus

STARLINK-5660

ActiefCommunicatieVLEO
NORAD 55335·PAYLOAD·🇺🇸 United States

Gelanceerd Jan 26, 2023 vanaf Cape Canaveral Space Force Station

Loading…

Volgende Passages (komende 24 uur)

TLE

VersSource: CelesTrak SupGP

Epoch: Sep 15, 2026, 01:23 UTC

1 55335C 23013E   26258.05812500  .00032578  00000+0  11800-2 0  2588
2 55335  43.0020 314.1946 0001154 274.8949  30.1622 15.27562405    16

Volg STARLINK-5660 in realtime met AllMySat

Download on the App Store